Meath Environmental Platform

Observations for Trim Patrick St

Time AQI Temp °C Hum % Pres Pa CO μg/m³ H₂S μg/m³ NO μg/m³ NO₂ μg/m³ O₃ μg/m³ SO₂ μg/m³ PM1 μg/m³ PM2.5 μg/m³ PM10 μg/m³
Saturday 8 August 2026
11:57 1 27.3 42 69,072 0 0 1.15 9.72 58.72 9.14 2 6.93 7.62
11:56 1 27.3 42 69,078 0 0 1.16 9.62 67.5 8.51 2.86 8.49 9.33
11:55 1 27.2 42 69,088 0 0 1.18 10.19 54.91 8.95 2.86 8.46 9.31
11:54 1 27.2 42 69,100 0 0 1.18 10.22 67.98 8.86 2.86 8.46 9.31
11:53 1 27.1 42 69,080 0 0 1.21 9.73 64.86 8.67 2 6.92 7.62
11:52 1 27.1 42 69,090 0 0 1.2 9.51 79.72 8.82 2 7.67 8.44
11:51 1 27.1 41 69,106 0 0 1.23 9.66 53.49 8.18 2.86 7.74 8.51
11:49 1 27.1 42 69,071 0 0 1.23 9.91 61.39 8.01 2 6.94 7.63
11:48 1 27.1 42 69,082 0 0 1.22 9.81 69.1 8.97 2 6.92 7.61
11:47 1 27.1 42 69,065 0 0 1.22 10.38 63.27 8.65 2.86 7.68 8.45
11:46 1 27.1 42 69,071 0 0 1.22 10.29 57.91 8.14 2 7.71 8.48
11:43 1 27 44 69,072 0 0 1.19 9.5 53.45 8.53 2.86 7.59 8.35
11:39 1 26.7 44 69,082 0 0 1.26 9.43 68.84 8.29 2.86 8.37 9.21
11:37 1 26.6 43 69,074 0 0 1.3 9.89 65.19 7.73 2 6.84 7.53
11:33 1 26.4 45 69,063 0 0 1.29 9.87 66.63 7.12 2 6.71 7.38
11:32 1 26.3 44 69,069 0 0 1.32 10.16 63.75 7.58 2 6.76 7.44
11:31 1 26.2 44 69,076 0 0 1.29 10.36 65.02 7.27 2.86 7.55 8.31
11:30 1 26.1 44 69,084 0 0 1.3 10.13 66.75 7.19 2 6.81 7.49
11:29 1 26 44 69,098 0 0 1.2 10.13 54.41 6.75 2 6.8 7.48
11:28 1 25.9 45 69,086 0 0 1.32 10.45 63.72 6.87 2.86 7.52 8.27